TimeCDT,TemperatureF,Dew PointF,Humidity,Sea Level PressureIn,VisibilityMPH,Wind Direction,Wind SpeedMPH,Gust SpeedMPH,PrecipitationIn,Events,Conditions,WindDirDegrees,DateUTC
12:13 AM,15.8,10.4,79,30.22,10.0,NW,17.3,23.0,N/A,,Clear,320,2014-03-22 05:13:00
12:33 AM,15.8,8.6,73,30.23,10.0,NNW,24.2,28.8,N/A,,Clear,330,2014-03-22 05:33:00
12:52 AM,14.0,8.6,79,30.24,10.0,NW,20.7,27.6,N/A,,Clear,320,2014-03-22 05:52:00
1:13 AM,14.0,8.6,79,30.24,10.0,NW,16.1,20.7,N/A,,Clear,320,2014-03-22 06:13:00
1:33 AM,14.0,8.6,79,30.24,10.0,NW,16.1,25.3,N/A,,Clear,320,2014-03-22 06:33:00
1:52 AM,14.0,6.8,73,30.25,10.0,NW,17.3,25.3,N/A,,Clear,320,2014-03-22 06:52:00
2:13 AM,12.2,6.8,79,30.27,10.0,NW,16.1,-,N/A,,Clear,320,2014-03-22 07:13:00
2:33 AM,12.2,6.8,79,30.28,10.0,NW,19.6,25.3,N/A,,Clear,320,2014-03-22 07:33:00
2:52 AM,12.2,6.8,79,30.28,10.0,NNW,15.0,25.3,N/A,,Clear,330,2014-03-22 07:52:00
3:13 AM,12.2,6.8,79,30.29,10.0,NW,16.1,23.0,N/A,,Clear,320,2014-03-22 08:13:00
3:33 AM,10.4,5.0,79,30.29,10.0,NW,20.7,26.5,N/A,,Clear,320,2014-03-22 08:33:00
3:52 AM,10.4,5.0,79,30.29,10.0,NW,17.3,26.5,N/A,,Clear,320,2014-03-22 08:52:00
4:13 AM,10.4,5.0,79,30.30,10.0,NNW,13.8,23.0,N/A,,Clear,330,2014-03-22 09:13:00
4:33 AM,10.4,3.2,73,30.30,10.0,NNW,19.6,26.5,N/A,,Clear,330,2014-03-22 09:33:00
4:52 AM,8.6,3.2,79,30.31,10.0,NW,16.1,-,N/A,,Clear,320,2014-03-22 09:52:00
5:13 AM,8.6,3.2,79,30.32,10.0,NW,15.0,20.7,N/A,,Clear,320,2014-03-22 10:13:00
5:33 AM,8.6,3.2,79,30.33,10.0,NNW,18.4,21.9,N/A,,Clear,330,2014-03-22 10:33:00
5:52 AM,8.6,3.2,79,30.34,10.0,NW,15.0,-,N/A,,Clear,320,2014-03-22 10:52:00
6:13 AM,8.6,3.2,79,30.35,10.0,NNW,15.0,23.0,N/A,,Clear,330,2014-03-22 11:13:00
6:33 AM,8.6,1.4,73,30.36,10.0,NW,13.8,-,N/A,,Clear,320,2014-03-22 11:33:00
6:52 AM,8.6,1.4,73,30.37,10.0,NNW,15.0,-,N/A,,Clear,330,2014-03-22 11:52:00
7:13 AM,8.6,1.4,73,30.38,10.0,NNW,15.0,19.6,N/A,,Clear,330,2014-03-22 12:13:00
7:32 AM,8.6,1.4,73,30.39,10.0,NNW,11.5,-,N/A,,Clear,330,2014-03-22 12:32:00
7:53 AM,8.6,1.4,73,30.40,10.0,NNW,12.7,-,N/A,,Clear,330,2014-03-22 12:53:00
8:13 AM,8.6,1.4,73,30.41,10.0,NNW,15.0,19.6,N/A,,Clear,330,2014-03-22 13:13:00
8:32 AM,8.6,1.4,73,30.41,10.0,NNW,18.4,21.9,N/A,,Clear,340,2014-03-22 13:32:00
8:53 AM,10.4,1.4,67,30.41,10.0,NNW,16.1,-,N/A,,Clear,330,2014-03-22 13:53:00
9:13 AM,10.4,1.4,67,30.42,10.0,NNW,18.4,21.9,N/A,,Clear,340,2014-03-22 14:13:00
9:32 AM,10.4,1.4,67,30.42,10.0,North,13.8,21.9,N/A,,Clear,350,2014-03-22 14:32:00
9:53 AM,12.2,1.4,62,30.43,10.0,NNW,15.0,20.7,N/A,,Clear,330,2014-03-22 14:53:00
10:13 AM,12.2,1.4,62,30.44,10.0,NNW,15.0,-,N/A,,Clear,340,2014-03-22 15:13:00
10:32 AM,14.0,3.2,62,30.44,10.0,NNW,17.3,-,N/A,,Clear,340,2014-03-22 15:32:00
10:53 AM,14.0,3.2,62,30.45,10.0,NNW,16.1,-,N/A,,Clear,340,2014-03-22 15:53:00
11:13 AM,15.8,3.2,58,30.45,10.0,North,13.8,-,N/A,,Clear,350,2014-03-22 16:13:00
11:32 AM,15.8,3.2,58,30.45,10.0,NNW,13.8,19.6,N/A,,Clear,330,2014-03-22 16:32:00
11:53 AM,15.8,3.2,58,30.45,10.0,NW,11.5,17.3,N/A,,Clear,320,2014-03-22 16:53:00
12:13 PM,15.8,5.0,62,30.45,10.0,NNW,11.5,-,N/A,,Clear,330,2014-03-22 17:13:00
12:32 PM,17.6,3.2,53,30.45,10.0,NNW,18.4,-,N/A,,Clear,340,2014-03-22 17:32:00
12:53 PM,17.6,5.0,58,30.44,10.0,NW,17.3,24.2,N/A,,Clear,320,2014-03-22 17:53:00
1:13 PM,19.4,5.0,54,30.44,10.0,NNW,18.4,21.9,N/A,,Clear,330,2014-03-22 18:13:00
1:32 PM,19.4,3.2,49,30.44,10.0,NNW,19.6,25.3,N/A,,Clear,340,2014-03-22 18:32:00
1:53 PM,19.4,5.0,54,30.45,10.0,NNW,19.6,23.0,N/A,,Clear,330,2014-03-22 18:53:00
2:12 PM,19.4,5.0,54,30.44,10.0,NNW,21.9,25.3,N/A,,Clear,340,2014-03-22 19:12:00
2:32 PM,19.4,6.8,58,30.44,10.0,NNW,18.4,23.0,N/A,,Scattered Clouds,340,2014-03-22 19:32:00
2:53 PM,21.2,6.8,54,30.43,10.0,NNW,15.0,20.7,N/A,,Scattered Clouds,330,2014-03-22 19:53:00
3:13 PM,21.2,6.8,54,30.43,10.0,NW,12.7,-,N/A,,Scattered Clouds,320,2014-03-22 20:13:00
3:32 PM,21.2,6.8,54,30.42,10.0,NW,17.3,21.9,N/A,,Scattered Clouds,310,2014-03-22 20:32:00
3:53 PM,21.2,6.8,54,30.43,10.0,NW,16.1,20.7,N/A,,Scattered Clouds,320,2014-03-22 20:53:00
4:13 PM,21.2,6.8,54,30.43,10.0,NNW,16.1,20.7,N/A,,Scattered Clouds,330,2014-03-22 21:13:00
4:32 PM,21.2,8.6,58,30.43,10.0,NW,11.5,24.2,N/A,,Scattered Clouds,320,2014-03-22 21:32:00
4:53 PM,21.2,6.8,54,30.43,10.0,NNW,18.4,-,N/A,,Mostly Cloudy,330,2014-03-22 21:53:00
5:13 PM,21.2,6.8,54,30.44,10.0,NW,12.7,23.0,N/A,,Mostly Cloudy,320,2014-03-22 22:13:00
5:33 PM,21.2,6.8,54,30.44,10.0,NNW,15.0,20.7,N/A,,Scattered Clouds,330,2014-03-22 22:33:00
5:52 PM,19.4,6.8,58,30.44,10.0,NNW,13.8,21.9,N/A,,Scattered Clouds,330,2014-03-22 22:52:00
6:13 PM,19.4,6.8,58,30.44,10.0,NNW,15.0,23.0,N/A,,Mostly Cloudy,330,2014-03-22 23:13:00
6:33 PM,19.4,6.8,58,30.45,10.0,NW,13.8,-,N/A,,Mostly Cloudy,320,2014-03-22 23:33:00
6:52 PM,19.4,6.8,58,30.45,10.0,NNW,13.8,18.4,N/A,,Scattered Clouds,340,2014-03-22 23:52:00
7:13 PM,17.6,6.8,63,30.46,10.0,NW,11.5,-,N/A,,Clear,320,2014-03-23 00:13:00
7:33 PM,17.6,6.8,63,30.46,10.0,NNW,15.0,19.6,N/A,,Clear,330,2014-03-23 00:33:00
7:52 PM,17.6,6.8,63,30.46,10.0,NNW,11.5,17.3,N/A,,Clear,330,2014-03-23 00:52:00
8:13 PM,17.6,6.8,63,30.47,10.0,NNW,10.4,-,N/A,,Clear,330,2014-03-23 01:13:00
8:33 PM,15.8,6.8,68,30.48,10.0,NNW,10.4,-,N/A,,Clear,330,2014-03-23 01:33:00
8:52 PM,15.8,6.8,68,30.48,10.0,NNW,12.7,-,N/A,,Clear,330,2014-03-23 01:52:00
9:13 PM,15.8,6.8,68,30.49,10.0,NNW,10.4,-,N/A,,Clear,330,2014-03-23 02:13:00
9:33 PM,15.8,6.8,68,30.49,10.0,NNW,9.2,-,N/A,,Clear,330,2014-03-23 02:33:00
9:52 PM,15.8,6.8,68,30.49,10.0,NW,10.4,-,N/A,,Clear,320,2014-03-23 02:52:00
10:13 PM,14.0,6.8,73,30.49,10.0,NNW,9.2,-,N/A,,Clear,330,2014-03-23 03:13:00
10:33 PM,14.0,6.8,73,30.50,10.0,NNW,6.9,-,N/A,,Clear,330,2014-03-23 03:33:00
10:52 PM,14.0,6.8,73,30.50,10.0,NNW,8.1,-,N/A,,Clear,330,2014-03-23 03:52:00
11:13 PM,12.2,6.8,79,30.50,10.0,NNW,10.4,-,N/A,,Clear,340,2014-03-23 04:13:00
11:33 PM,12.2,5.0,73,30.51,10.0,NNW,8.1,-,N/A,,Clear,330,2014-03-23 04:33:00
11:52 PM,12.2,5.0,73,30.51,10.0,NNW,6.9,-,N/A,,Clear,330,2014-03-23 04:52:00